This demonstration page uses our WeatherBlox Daily Observations layout. Learn more.

Left ArrowRight Arrow

36.19886, -115.1175

Hourly Observations for October 24, 2020

Temp ( °F °C ) Dew Point ( °F °C ) Humidity (%) Winds ( mph kmh ) Pressure ( in mb ) Visibility ( mi km ) Precip ( " mm )
12:53 am 00:53 Clear 63 17.2 29 -1.7 28 28 WNW 6 9 29.92 1013 10 16 0.00 0.00
1:53 am 01:53 Clear 62 16.7 31 -0.6 31 31 WNW 5 7 29.92 1013 10 16 0.00 0.00
2:53 am 02:53 Clear 60 15.6 30 -1.1 32 32 WNW 5 7 29.91 1013 10 16 0.00 0.00
3:53 am 03:53 Clear 60 15.6 29 -1.7 31 31 W 3 6 29.91 1013 10 16 0.00 0.00
4:53 am 04:53 Clear 58 14.4 30 -1.1 35 35 NW 3 6 29.91 1013 10 16 0.00 0.00
5:53 am 05:53 Clear 60 15.6 30 -1.1 32 32 WNW 5 7 29.92 1013 10 16 0.00 0.00
6:53 am 06:53 Clear 60 15.6 30 -1.1 32 32 Calm 29.92 1013 10 16 0.00 0.00
7:53 am 07:53 Sunny 61 16.1 33 0.6 35 35 NNW 5 7 29.93 1013 10 16 0.00 0.00
8:53 am 08:53 Sunny 65 18.3 29 -1.7 26 26 NW 5 7 29.94 1014 10 16 0.00 0.00
9:53 am 09:53 Sunny 67 19.4 28 -2.2 23 23 NW 6 9 29.93 1014 10 16 0.00 0.00
10:53 am 10:53 Sunny 71 21.7 27 -2.8 19 19 Calm 29.92 1013 10 16 0.00 0.00
11:53 am 11:53 Sunny 74 23.3 29 -1.7 19 19 E 5 7 29.90 1012 10 16 0.00 0.00
12:53 pm 12:53 Sunny 77 25 35 1.7 22 22 E 7 11 29.85 1011 10 16 0.00 0.00
1:53 pm 13:53 Sunny 78 25.6 35 1.7 21 21 VRB 3 6 29.82 1010 10 16 0.00 0.00
2:53 pm 14:53 Sunny 80 26.7 35 1.7 20 20 E 5 7 29.78 1009 10 16 0.00 0.00
3:53 pm 15:53 Sunny 81 27.2 35 1.7 19 19 S 3 6 29.76 1008 10 16 0.00 0.00
4:53 pm 16:53 Sunny 82 27.8 36 2.2 19 19 E 3 6 29.75 1007 10 16 0.00 0.00
5:53 pm 17:53 Sunny 80 26.7 39 3.9 23 23 Calm 29.73 1007 10 16 0.00 0.00
6:53 pm 18:53 Clear 76 24.4 39 3.9 26 26 Calm 29.73 1007 10 16 0.00 0.00
7:53 pm 19:53 Clear 74 23.3 37 2.8 26 26 Calm 29.72 1007 10 16 0.00 0.00
8:53 pm 20:53 Clear 77 25 27 -2.8 16 16 S 14 22 29.71 1006 10 16 0.00 0.00
9:53 pm 21:53 Clear 77 25 26 -3.3 15 15 S 13 20 29.71 1006 10 16 0.00 0.00
10:53 pm 22:53 Clear 76 24.4 30 -1.1 18 18 S 14 22 29.70 1006 10 16 0.00 0.00
11:53 pm 23:53 Clear 77 25 32 0 19 19 SSW 10 17 29.68 1005 10 16 0.00 0.00

Powered by AerisWeather